Hourly Data Report for September 08, 2020

LOURDES DE BLANC SABLON A
QUEBEC
Current Station Operator: NAVCAN

51°26'31.000" N
57°11'10.000" W
37.20 m
7040815
71808
YBX

Download Data

Hourly Data (September 2020)
Hourly Data Report for September 8, 2020
TIME Temp Definition
°C
Dew Point Definition
°C
Rel Hum Definition
%
Wind Dir Definition
10's deg

Wind Spd Definition
km/h
Visibility Definition
km
Stn Press Definition
kPa
Hmdx Definition


Wind Chill Definition


Weather Definition


00:00 11.9 9.7 86 13 18 24.1 101.78     LegendNANA
01:00 13.1 10.4 84 16 16 24.1 101.71     LegendNANA
02:00 15.0 10.4 74 20 24 24.1 101.63     Mostly Cloudy
03:00 15.3 10.9 75 21 32 24.1 101.59     LegendNANA
04:00 15.3 10.7 73 21 36 24.1 101.50     LegendNANA
05:00 15.6 10.6 72 22 37 24.1 101.46     Mostly Cloudy
06:00 15.5 10.9 74 22 40 24.1 101.46     LegendNANA
07:00 15.5 11.3 76 22 39 24.1 101.42     LegendNANA
08:00 16.0 12.0 76 22 37 24.1 101.37     Cloudy
09:00 16.2 12.3 77 22 40 24.1 101.34     LegendNANA
10:00 16.0 12.2 78 22 41 24.1 101.32     LegendNANA
11:00 15.8 12.5 81 23 45 24.1 101.26     Cloudy
12:00 15.9 13.2 84 22 41 24.1 101.27     Rain
13:00 15.0 13.2 89 25 34 24.1 101.26     LegendNANA
14:00 14.9 13.6 92 23 39 4.8 101.22     Fog
15:00 15.0 13.9 93 23 37 9.7 101.10     Fog
16:00 15.0 13.7 92 22 40 9.7 101.02     Fog
17:00 14.3 14.0 98 22 40 4.8 100.93     Rain,Fog
18:00 14.1 13.9 98 23 39 3.2 100.92     Rain,Fog
19:00 13.9 13.6 98 23 38 4.8 100.89     Fog
20:00 13.5 13.3 99 25 36 4.8 100.94     Fog
21:00 12.9 12.5 97 25 32 8.1 100.95     Fog
22:00 11.9 11.4 97 26 21 8.1 101.00     Fog
23:00 11.1 10.2 94 26 24 16.1 101.04     Mainly Clear

Notes on Data Quality.

Legend

  • E = Estimated
  • M = Missing
  • NA = Not Available*
  • [empty] = Indicates an unobserved value
Date modified: